User: anonymous   Login
Location: Hopkins Observatory
(42.6965°N, 73.1843°W)
Time: 14:39:04
(UTC-04:00)
Language:

UOSAT-12 - Orbit

View from above orbital plane
View from above orbital plane
View from above satellite
View from above satellite

Ground track
Ground track

The orbit data is extracted from the following two-line orbital elements,

1 25693U 99021A   17207.90006946 -.00000097 +00000-0 +65508-5 0  9993
2 25693 064.5565 003.2859 0038066 306.0160 053.7419 14.80743778985778
Epoch (UTC): 26 July 2017 21:36:06
Eccentricity: 0.0038066
inclination: 64.5565°
perigee height: 600 km
apogee height: 653 km
right ascension of ascending node: 3.2859°
argument of perigee: 306.0160°
revolutions per day: 14.80743778
mean anomaly at epoch: 53.7419°
orbit number at epoch: 98577

The dashed part of the orbit path shows where the satellite is in the earth's shadow,  

DLR